Year,Month,Day,Hour,Minute,Value (Times are PST for temperature in C)
2009,09,22,00,00,13.90
2009,09,22,00,01,13.90
2009,09,22,00,02,13.80
2009,09,22,00,03,13.80
2009,09,22,00,04,13.80
2009,09,22,00,05,13.80
2009,09,22,00,06,13.80
2009,09,22,00,07,13.80
2009,09,22,00,08,13.80
2009,09,22,00,09,13.80
2009,09,22,00,10,13.80
2009,09,22,00,11,13.80
2009,09,22,00,12,13.80
2009,09,22,00,13,13.80
2009,09,22,00,14,13.80
2009,09,22,00,15,13.80
2009,09,22,00,16,13.80
2009,09,22,00,17,13.80
2009,09,22,00,18,13.70
2009,09,22,00,19,13.70
2009,09,22,00,20,13.70
2009,09,22,00,21,13.70
2009,09,22,00,22,13.70
2009,09,22,00,23,13.70
2009,09,22,00,24,13.70
2009,09,22,00,25,13.70
2009,09,22,00,26,13.70
2009,09,22,00,27,13.70
2009,09,22,00,28,13.70
2009,09,22,00,29,13.70
2009,09,22,00,30,13.70
2009,09,22,00,31,13.70
2009,09,22,00,32,13.70
2009,09,22,00,33,13.60
2009,09,22,00,34,13.60
2009,09,22,00,35,13.60
2009,09,22,00,36,13.50
2009,09,22,00,37,13.40
2009,09,22,00,38,13.40
2009,09,22,00,39,13.30
2009,09,22,00,40,13.30
2009,09,22,00,41,13.30
2009,09,22,00,42,13.30
2009,09,22,00,43,13.30
2009,09,22,00,44,13.20
2009,09,22,00,45,13.20
2009,09,22,00,46,13.20
2009,09,22,00,47,13.20
2009,09,22,00,48,13.20
2009,09,22,00,49,13.20
2009,09,22,00,50,13.20
2009,09,22,00,51,13.20
2009,09,22,00,52,13.20
2009,09,22,00,53,13.10
2009,09,22,00,54,13.10
2009,09,22,00,55,13.10
2009,09,22,00,56,13.10
2009,09,22,00,57,13.20
2009,09,22,00,58,13.20
2009,09,22,00,59,13.20
2009,09,22,01,00,13.20
2009,09,22,01,01,13.20
2009,09,22,01,02,13.20
2009,09,22,01,03,13.20
2009,09,22,01,04,13.20
2009,09,22,01,05,13.20
2009,09,22,01,06,13.20
2009,09,22,01,07,13.10
2009,09,22,01,08,13.10
2009,09,22,01,09,13.10
2009,09,22,01,10,13.10
2009,09,22,01,11,13.10
2009,09,22,01,12,13.20
2009,09,22,01,13,13.20
2009,09,22,01,14,13.20
2009,09,22,01,15,13.20
2009,09,22,01,16,13.30
2009,09,22,01,17,13.30
2009,09,22,01,18,13.30
2009,09,22,01,19,13.40
2009,09,22,01,20,13.40
2009,09,22,01,21,13.40
2009,09,22,01,22,13.40
2009,09,22,01,23,13.40
2009,09,22,01,24,13.50
2009,09,22,01,25,13.60
2009,09,22,01,26,13.60
2009,09,22,01,27,13.60
2009,09,22,01,28,13.70
2009,09,22,01,29,13.70
2009,09,22,01,30,13.70
2009,09,22,01,31,13.70
2009,09,22,01,32,13.70
2009,09,22,01,33,13.70
2009,09,22,01,34,13.80
2009,09,22,01,35,13.90
2009,09,22,01,36,13.90
2009,09,22,01,37,13.90
2009,09,22,01,38,13.90
2009,09,22,01,39,14.00
2009,09,22,01,40,14.00
2009,09,22,01,41,14.00
2009,09,22,01,42,14.00
2009,09,22,01,43,14.00
2009,09,22,01,44,14.00
2009,09,22,01,45,14.00
2009,09,22,01,46,13.90
2009,09,22,01,47,13.90
2009,09,22,01,48,13.90
2009,09,22,01,49,13.80
2009,09,22,01,50,13.80
2009,09,22,01,51,13.80
2009,09,22,01,52,13.70
2009,09,22,01,53,13.70
2009,09,22,01,54,13.70
2009,09,22,01,55,13.70
2009,09,22,01,56,13.70
2009,09,22,01,57,13.70
2009,09,22,01,58,13.70
2009,09,22,01,59,13.80
2009,09,22,02,00,13.80
2009,09,22,02,01,13.80
2009,09,22,02,02,13.80
2009,09,22,02,03,13.80
2009,09,22,02,04,13.90
2009,09,22,02,05,13.90
2009,09,22,02,06,13.90
2009,09,22,02,07,13.90
2009,09,22,02,08,13.90
2009,09,22,02,09,13.90
2009,09,22,02,10,13.90
2009,09,22,02,11,13.80
2009,09,22,02,12,13.80
2009,09,22,02,13,13.80
2009,09,22,02,14,13.80
2009,09,22,02,15,13.80
2009,09,22,02,16,13.80
2009,09,22,02,17,13.80
2009,09,22,02,18,13.80
2009,09,22,02,19,13.90
2009,09,22,02,20,13.90
2009,09,22,02,21,13.90
2009,09,22,02,22,14.00
2009,09,22,02,23,14.00
2009,09,22,02,24,14.00
2009,09,22,02,25,14.00
2009,09,22,02,26,13.90
2009,09,22,02,27,13.90
2009,09,22,02,28,13.90
2009,09,22,02,29,13.90
2009,09,22,02,30,13.90
2009,09,22,02,31,13.90
2009,09,22,02,32,14.00
2009,09,22,02,33,14.00
2009,09,22,02,34,14.00
2009,09,22,02,35,14.00
2009,09,22,02,36,14.00
2009,09,22,02,37,14.00
2009,09,22,02,38,14.00
2009,09,22,02,39,14.00
2009,09,22,02,40,14.00
2009,09,22,02,41,14.00
2009,09,22,02,42,14.00
2009,09,22,02,43,14.00
2009,09,22,02,44,14.00
2009,09,22,02,45,14.00
2009,09,22,02,46,14.00
2009,09,22,02,47,14.00
2009,09,22,02,48,14.00
2009,09,22,02,49,14.00
2009,09,22,02,50,14.10
2009,09,22,02,51,14.10
2009,09,22,02,52,14.10
2009,09,22,02,53,14.20
2009,09,22,02,54,14.20
2009,09,22,02,55,14.20
2009,09,22,02,56,14.20
2009,09,22,02,57,14.20
2009,09,22,02,58,14.20
2009,09,22,02,59,14.20
2009,09,22,03,00,14.30
2009,09,22,03,01,14.30
2009,09,22,03,02,14.30
2009,09,22,03,03,14.30
2009,09,22,03,04,14.30
2009,09,22,03,05,14.30
2009,09,22,03,06,14.30
2009,09,22,03,07,14.30
2009,09,22,03,08,14.30
2009,09,22,03,09,14.30
2009,09,22,03,10,14.30
2009,09,22,03,11,14.30
2009,09,22,03,12,14.20
2009,09,22,03,13,14.20
2009,09,22,03,14,14.20
2009,09,22,03,15,14.20
2009,09,22,03,16,14.20
2009,09,22,03,17,14.20
2009,09,22,03,18,14.20
2009,09,22,03,19,14.20
2009,09,22,03,20,14.20
2009,09,22,03,21,14.20
2009,09,22,03,22,14.20
2009,09,22,03,23,14.20
2009,09,22,03,24,14.20
2009,09,22,03,25,14.20
2009,09,22,03,26,14.20
2009,09,22,03,27,14.20
2009,09,22,03,28,14.20
2009,09,22,03,29,14.20
2009,09,22,03,30,14.20
2009,09,22,03,31,14.20
2009,09,22,03,32,14.10
2009,09,22,03,33,14.10
2009,09,22,03,34,14.10
2009,09,22,03,35,14.10
2009,09,22,03,36,14.10
2009,09,22,03,37,14.00
2009,09,22,03,38,14.00
2009,09,22,03,39,14.00
2009,09,22,03,40,14.00
2009,09,22,03,41,13.90
2009,09,22,03,42,13.90
2009,09,22,03,43,13.90
2009,09,22,03,44,13.80
2009,09,22,03,45,13.80
2009,09,22,03,46,13.80
2009,09,22,03,47,13.70
2009,09,22,03,48,13.70
2009,09,22,03,49,13.70
2009,09,22,03,50,13.70
2009,09,22,03,51,13.70
2009,09,22,03,52,13.70
2009,09,22,03,53,13.60
2009,09,22,03,54,13.60
2009,09,22,03,55,13.60
2009,09,22,03,56,13.60
2009,09,22,03,57,13.60
2009,09,22,03,58,13.60
2009,09,22,03,59,13.60
2009,09,22,04,00,13.60
2009,09,22,04,01,13.60
2009,09,22,04,02,13.60
2009,09,22,04,03,13.60
2009,09,22,04,04,13.70
2009,09,22,04,05,13.70
2009,09,22,04,06,13.70
2009,09,22,04,07,13.80
2009,09,22,04,08,13.80
2009,09,22,04,09,13.90
2009,09,22,04,10,13.90
2009,09,22,04,11,14.00
2009,09,22,04,12,14.00
2009,09,22,04,13,14.00
2009,09,22,04,14,14.00
2009,09,22,04,15,14.00
2009,09,22,04,16,14.00
2009,09,22,04,17,14.00
2009,09,22,04,18,13.90
2009,09,22,04,19,13.90
2009,09,22,04,20,13.90
2009,09,22,04,21,13.90
2009,09,22,04,22,13.90
2009,09,22,04,23,13.90
2009,09,22,04,24,13.90
2009,09,22,04,25,13.90
2009,09,22,04,26,13.80
2009,09,22,04,27,13.80
2009,09,22,04,28,13.80
2009,09,22,04,29,13.70
2009,09,22,04,30,13.70
2009,09,22,04,31,13.70
2009,09,22,04,32,13.60
2009,09,22,04,33,13.60
2009,09,22,04,34,13.50
2009,09,22,04,35,13.50
2009,09,22,04,36,13.40
2009,09,22,04,37,13.40
2009,09,22,04,38,13.30
2009,09,22,04,39,13.30
2009,09,22,04,40,13.30
2009,09,22,04,41,13.30
2009,09,22,04,42,13.30
2009,09,22,04,43,13.30
2009,09,22,04,44,13.30
2009,09,22,04,45,13.30
2009,09,22,04,46,13.30
2009,09,22,04,47,13.20
2009,09,22,04,48,13.20
2009,09,22,04,49,13.20
2009,09,22,04,50,13.20
2009,09,22,04,51,13.20
2009,09,22,04,52,13.10
2009,09,22,04,53,13.10
2009,09,22,04,54,13.10
2009,09,22,04,55,13.20
2009,09,22,04,56,13.20
2009,09,22,04,57,13.20
2009,09,22,04,58,13.20
2009,09,22,04,59,13.20
2009,09,22,05,00,13.30
2009,09,22,05,01,13.30
2009,09,22,05,02,13.30
2009,09,22,05,03,13.30
2009,09,22,05,04,13.30
2009,09,22,05,05,13.30
2009,09,22,05,06,13.30
2009,09,22,05,07,13.20
2009,09,22,05,08,13.20
2009,09,22,05,09,13.20
2009,09,22,05,10,13.20
2009,09,22,05,11,13.10
2009,09,22,05,12,13.10
2009,09,22,05,13,13.10
2009,09,22,05,14,13.10
2009,09,22,05,15,13.10
2009,09,22,05,16,13.00
2009,09,22,05,17,13.00
2009,09,22,05,18,13.00
2009,09,22,05,19,12.90
2009,09,22,05,20,12.90
2009,09,22,05,21,12.90
2009,09,22,05,22,12.90
2009,09,22,05,23,12.90
2009,09,22,05,24,12.90
2009,09,22,05,25,12.90
2009,09,22,05,26,12.90
2009,09,22,05,27,12.90
2009,09,22,05,28,13.00
2009,09,22,05,29,13.10
2009,09,22,05,30,13.20
2009,09,22,05,31,13.20
2009,09,22,05,32,13.20
2009,09,22,05,33,13.30
2009,09,22,05,34,13.30
2009,09,22,05,35,13.30
2009,09,22,05,36,13.30
2009,09,22,05,37,13.30
2009,09,22,05,38,13.30
2009,09,22,05,39,13.20
2009,09,22,05,40,13.20
2009,09,22,05,41,13.20
2009,09,22,05,42,13.20
2009,09,22,05,43,13.20
2009,09,22,05,44,13.10
2009,09,22,05,45,13.20
2009,09,22,05,46,13.20
2009,09,22,05,47,13.20
2009,09,22,05,48,13.20
2009,09,22,05,49,13.20
2009,09,22,05,50,13.20
2009,09,22,05,51,13.20
2009,09,22,05,52,13.20
2009,09,22,05,53,13.20
2009,09,22,05,54,13.20
2009,09,22,05,55,13.20
2009,09,22,05,56,13.10
2009,09,22,05,57,13.10
2009,09,22,05,58,13.00
2009,09,22,05,59,13.00
2009,09,22,06,00,12.90
2009,09,22,06,01,12.90
2009,09,22,06,02,12.90
2009,09,22,06,03,12.90
2009,09,22,06,04,12.90
2009,09,22,06,05,12.90
2009,09,22,06,06,12.80
2009,09,22,06,07,12.80
2009,09,22,06,08,12.80
2009,09,22,06,09,12.80
2009,09,22,06,10,12.80
2009,09,22,06,11,12.80
2009,09,22,06,12,12.80
2009,09,22,06,13,12.80
2009,09,22,06,14,12.80
2009,09,22,06,15,12.80
2009,09,22,06,16,12.80
2009,09,22,06,17,12.80
2009,09,22,06,18,12.80
2009,09,22,06,19,12.80
2009,09,22,06,20,12.80
2009,09,22,06,21,12.80
2009,09,22,06,22,12.80
2009,09,22,06,23,12.80
2009,09,22,06,24,12.80
2009,09,22,06,25,12.80
2009,09,22,06,26,12.80
2009,09,22,06,27,12.80
2009,09,22,06,28,12.80
2009,09,22,06,29,12.80
2009,09,22,06,30,12.80
2009,09,22,06,31,12.80
2009,09,22,06,32,12.80
2009,09,22,06,33,12.70
2009,09,22,06,34,12.70
2009,09,22,06,35,12.60
2009,09,22,06,36,12.60
2009,09,22,06,37,12.50
2009,09,22,06,38,12.50
2009,09,22,06,39,12.40
2009,09,22,06,40,12.30
2009,09,22,06,41,12.30
2009,09,22,06,42,12.30
2009,09,22,06,43,12.40
2009,09,22,06,44,12.40
2009,09,22,06,45,12.50
2009,09,22,06,46,12.50
2009,09,22,06,47,12.50
2009,09,22,06,48,12.50
2009,09,22,06,49,12.50
2009,09,22,06,50,12.50
2009,09,22,06,51,12.50
2009,09,22,06,52,12.50
2009,09,22,06,53,12.50
2009,09,22,06,54,12.40
2009,09,22,06,55,12.40
2009,09,22,06,56,12.30
2009,09,22,06,57,12.30
2009,09,22,06,58,12.30
2009,09,22,06,59,12.30
2009,09,22,07,00,12.30
2009,09,22,07,01,12.30
2009,09,22,07,02,12.40
2009,09,22,07,03,12.40
2009,09,22,07,04,12.40
2009,09,22,07,05,12.30
2009,09,22,07,06,12.30
2009,09,22,07,07,12.30
2009,09,22,07,08,12.30
2009,09,22,07,09,12.30
2009,09,22,07,10,12.30
2009,09,22,07,11,12.30
2009,09,22,07,12,12.20
2009,09,22,07,13,12.20
2009,09,22,07,14,12.30
2009,09,22,07,15,12.30
2009,09,22,07,16,12.30
2009,09,22,07,17,12.40
2009,09,22,07,18,12.50
2009,09,22,07,19,12.50
2009,09,22,07,20,12.60
2009,09,22,07,21,12.60
2009,09,22,07,22,12.70
2009,09,22,07,23,12.70
2009,09,22,07,24,12.80
2009,09,22,07,25,12.80
2009,09,22,07,26,12.80
2009,09,22,07,27,12.80
2009,09,22,07,28,12.80
2009,09,22,07,29,12.80
2009,09,22,07,30,12.80
2009,09,22,07,31,12.80
2009,09,22,07,32,12.80
2009,09,22,07,33,12.80
2009,09,22,07,34,12.80
2009,09,22,07,35,12.80
2009,09,22,07,36,12.80
2009,09,22,07,37,12.80
2009,09,22,07,38,12.80
2009,09,22,07,39,12.80
2009,09,22,07,40,12.80
2009,09,22,07,41,12.80
2009,09,22,07,42,12.80
2009,09,22,07,43,12.90
2009,09,22,07,44,12.90
2009,09,22,07,45,12.90
2009,09,22,07,46,13.00
2009,09,22,07,47,13.00
2009,09,22,07,48,13.10
2009,09,22,07,49,13.10
2009,09,22,07,50,13.20
2009,09,22,07,51,13.20
2009,09,22,07,52,13.30
2009,09,22,07,53,13.40
2009,09,22,07,54,13.50
2009,09,22,07,55,13.60
2009,09,22,07,56,13.60
2009,09,22,07,57,13.70
2009,09,22,07,58,13.80
2009,09,22,07,59,13.90
2009,09,22,08,00,13.90
2009,09,22,08,01,14.00
2009,09,22,08,02,14.10
2009,09,22,08,03,14.20
2009,09,22,08,04,14.20
2009,09,22,08,05,14.30
2009,09,22,08,06,14.40
2009,09,22,08,07,14.50
2009,09,22,08,08,14.50
2009,09,22,08,09,14.60
2009,09,22,08,10,14.70
2009,09,22,08,11,14.80
2009,09,22,08,12,14.80
2009,09,22,08,13,14.90
2009,09,22,08,14,14.90
2009,09,22,08,15,15.00
2009,09,22,08,16,15.10
2009,09,22,08,17,15.10
2009,09,22,08,18,15.20
2009,09,22,08,19,15.30
2009,09,22,08,20,15.30
2009,09,22,08,21,15.30
2009,09,22,08,22,15.40
2009,09,22,08,23,15.50
2009,09,22,08,24,15.50
2009,09,22,08,25,15.60
2009,09,22,08,26,15.70
2009,09,22,08,27,15.80
2009,09,22,08,28,15.90
2009,09,22,08,29,16.00
2009,09,22,08,30,16.10
2009,09,22,08,31,16.20
2009,09,22,08,32,16.30
2009,09,22,08,33,16.40
2009,09,22,08,34,16.40
2009,09,22,08,35,16.50
2009,09,22,08,36,16.70
2009,09,22,08,37,16.80
2009,09,22,08,38,16.90
2009,09,22,08,39,17.00
2009,09,22,08,40,17.10
2009,09,22,08,41,17.20
2009,09,22,08,42,17.30
2009,09,22,08,43,17.40
2009,09,22,08,44,17.60
2009,09,22,08,45,17.70
2009,09,22,08,46,17.80
2009,09,22,08,47,17.90
2009,09,22,08,48,18.00
2009,09,22,08,49,18.10
2009,09,22,08,50,18.20
2009,09,22,08,51,18.30
2009,09,22,08,52,18.40
2009,09,22,08,53,18.50
2009,09,22,08,54,18.60
2009,09,22,08,55,18.70
2009,09,22,08,56,18.80
2009,09,22,08,57,18.90
2009,09,22,08,58,18.90
2009,09,22,08,59,19.00
2009,09,22,09,00,19.10
2009,09,22,09,01,19.10
2009,09,22,09,02,19.20
2009,09,22,09,03,19.20
2009,09,22,09,04,19.30
2009,09,22,09,05,19.30
2009,09,22,09,06,19.40
2009,09,22,09,07,19.40
2009,09,22,09,08,19.40
2009,09,22,09,09,19.50
2009,09,22,09,10,19.50
2009,09,22,09,11,19.60
2009,09,22,09,12,19.60
2009,09,22,09,13,19.70
2009,09,22,09,14,19.70
2009,09,22,09,15,19.80
2009,09,22,09,16,19.80
2009,09,22,09,17,19.80
2009,09,22,09,18,19.90
2009,09,22,09,19,19.90
2009,09,22,09,20,19.90
2009,09,22,09,21,19.90
2009,09,22,09,22,19.90
2009,09,22,09,23,20.00
2009,09,22,09,24,20.10
2009,09,22,09,25,20.10
2009,09,22,09,26,20.20
2009,09,22,09,27,20.20
2009,09,22,09,28,20.20
2009,09,22,09,29,20.20
2009,09,22,09,30,20.20
2009,09,22,09,31,20.20
2009,09,22,09,32,20.20
2009,09,22,09,33,20.20
2009,09,22,09,34,20.20
2009,09,22,09,35,20.30
2009,09,22,09,36,20.30
2009,09,22,09,37,20.40
2009,09,22,09,38,20.40
2009,09,22,09,39,20.40
2009,09,22,09,40,20.40
2009,09,22,09,41,20.40
2009,09,22,09,42,20.40
2009,09,22,09,43,20.50
2009,09,22,09,44,20.50
2009,09,22,09,45,20.50
2009,09,22,09,46,20.60
2009,09,22,09,47,20.60
2009,09,22,09,48,20.60
2009,09,22,09,49,20.60
2009,09,22,09,50,20.60
2009,09,22,09,51,20.70
2009,09,22,09,52,20.70
2009,09,22,09,53,20.70
2009,09,22,09,54,20.70
2009,09,22,09,55,20.70
2009,09,22,09,56,20.70
2009,09,22,09,57,20.60
2009,09,22,09,58,20.60
2009,09,22,09,59,20.60
2009,09,22,10,00,20.60
2009,09,22,10,01,20.60
2009,09,22,10,02,20.50
2009,09,22,10,03,20.50
2009,09,22,10,04,20.50
2009,09,22,10,05,20.40
2009,09,22,10,06,20.50
2009,09,22,10,07,20.50
2009,09,22,10,08,20.50
2009,09,22,10,09,20.50
2009,09,22,10,10,20.50
2009,09,22,10,11,20.40
2009,09,22,10,12,20.40
2009,09,22,10,13,20.30
2009,09,22,10,14,20.30
2009,09,22,10,15,20.30
2009,09,22,10,16,20.30
2009,09,22,10,17,20.30
2009,09,22,10,18,20.30
2009,09,22,10,19,20.30
2009,09,22,10,20,20.30
2009,09,22,10,21,20.30
2009,09,22,10,22,20.30
2009,09,22,10,23,20.30
2009,09,22,10,24,20.40
2009,09,22,10,25,20.40
2009,09,22,10,26,20.50
2009,09,22,10,27,20.60
2009,09,22,10,28,20.70
2009,09,22,10,29,20.70
2009,09,22,10,30,20.70
2009,09,22,10,31,20.70
2009,09,22,10,32,20.70
2009,09,22,10,33,20.70
2009,09,22,10,34,20.70
2009,09,22,10,35,20.70
2009,09,22,10,36,20.70
2009,09,22,10,37,20.70
2009,09,22,10,38,20.70
2009,09,22,10,39,20.80
2009,09,22,10,40,20.90
2009,09,22,10,41,20.90
2009,09,22,10,42,20.90
2009,09,22,10,43,20.90
2009,09,22,10,44,20.90
2009,09,22,10,45,20.90
2009,09,22,10,46,20.90
2009,09,22,10,47,20.90
2009,09,22,10,48,20.90
2009,09,22,10,49,20.90
2009,09,22,10,50,20.90
2009,09,22,10,51,20.90
2009,09,22,10,52,21.00
2009,09,22,10,53,20.90
2009,09,22,10,54,20.90
2009,09,22,10,55,20.90
2009,09,22,10,56,20.90
2009,09,22,10,57,20.90
2009,09,22,10,58,20.90
2009,09,22,10,59,20.90
2009,09,22,11,00,20.90
2009,09,22,11,01,20.90
2009,09,22,11,02,20.90
2009,09,22,11,03,20.90
2009,09,22,11,04,20.90
2009,09,22,11,05,20.90
2009,09,22,11,06,20.90
2009,09,22,11,07,20.90
2009,09,22,11,08,20.80
2009,09,22,11,09,20.80
2009,09,22,11,10,20.80
2009,09,22,11,11,20.80
2009,09,22,11,12,20.80
2009,09,22,11,13,20.80
2009,09,22,11,14,20.80
2009,09,22,11,15,20.80
2009,09,22,11,16,20.80
2009,09,22,11,17,20.80
2009,09,22,11,18,20.90
2009,09,22,11,19,20.90
2009,09,22,11,20,21.00
2009,09,22,11,21,21.10
2009,09,22,11,22,21.10
2009,09,22,11,23,21.10
2009,09,22,11,24,21.00
2009,09,22,11,25,21.00
2009,09,22,11,26,21.00
2009,09,22,11,27,21.00
2009,09,22,11,28,21.00
2009,09,22,11,29,21.00
2009,09,22,11,30,21.00
2009,09,22,11,31,21.10
2009,09,22,11,32,21.10
2009,09,22,11,33,21.20
2009,09,22,11,34,21.20
2009,09,22,11,35,21.30
2009,09,22,11,36,21.30
2009,09,22,11,37,21.30
2009,09,22,11,38,21.20
2009,09,22,11,39,21.20
2009,09,22,11,40,21.20
2009,09,22,11,41,21.20
2009,09,22,11,42,21.20
2009,09,22,11,43,21.30
2009,09,22,11,44,21.40
2009,09,22,11,45,21.40
2009,09,22,11,46,21.50
2009,09,22,11,47,21.40
2009,09,22,11,48,21.40
2009,09,22,11,49,21.50
2009,09,22,11,50,21.60
2009,09,22,11,51,21.60
2009,09,22,11,52,21.60
2009,09,22,11,53,21.60
2009,09,22,11,54,21.60
2009,09,22,11,55,21.70
2009,09,22,11,56,21.80
2009,09,22,11,57,21.80
2009,09,22,11,58,21.90
2009,09,22,11,59,21.90
2009,09,22,12,00,22.00
2009,09,22,12,01,22.00
2009,09,22,12,02,22.00
2009,09,22,12,03,22.00
2009,09,22,12,04,22.10
2009,09,22,12,05,22.20
2009,09,22,12,06,22.20
2009,09,22,12,07,22.20
2009,09,22,12,08,22.30
2009,09,22,12,09,22.40
2009,09,22,12,10,22.40
2009,09,22,12,11,22.50
2009,09,22,12,12,22.50
2009,09,22,12,13,22.60
2009,09,22,12,14,22.60
2009,09,22,12,15,22.60
2009,09,22,12,16,22.70
2009,09,22,12,17,22.70
2009,09,22,12,18,22.80
2009,09,22,12,19,22.80
2009,09,22,12,20,22.90
2009,09,22,12,21,22.90
2009,09,22,12,22,22.90
2009,09,22,12,23,22.90
2009,09,22,12,24,22.90
2009,09,22,12,25,22.90
2009,09,22,12,26,22.90
2009,09,22,12,27,22.90
2009,09,22,12,28,22.90
2009,09,22,12,29,22.90
2009,09,22,12,30,22.90
2009,09,22,12,31,22.90
2009,09,22,12,32,22.90
2009,09,22,12,33,22.80
2009,09,22,12,34,22.80
2009,09,22,12,35,22.80
2009,09,22,12,36,22.80
2009,09,22,12,37,22.90
2009,09,22,12,38,22.90
2009,09,22,12,39,22.90
2009,09,22,12,40,22.80
2009,09,22,12,41,22.90
2009,09,22,12,42,22.90
2009,09,22,12,43,22.90
2009,09,22,12,44,22.90
2009,09,22,12,45,22.90
2009,09,22,12,46,22.90
2009,09,22,12,47,22.90
2009,09,22,12,48,22.90
2009,09,22,12,49,22.90
2009,09,22,12,50,22.90
2009,09,22,12,51,23.10
2009,09,22,12,52,23.10
2009,09,22,12,53,23.10
2009,09,22,12,54,23.20
2009,09,22,12,55,23.30
2009,09,22,12,56,23.30
2009,09,22,12,57,23.20
2009,09,22,12,58,23.20
2009,09,22,12,59,23.30
2009,09,22,13,00,23.30
2009,09,22,13,01,23.30
2009,09,22,13,02,23.30
2009,09,22,13,03,23.30
2009,09,22,13,04,23.40
2009,09,22,13,05,23.40
2009,09,22,13,06,23.50
2009,09,22,13,07,23.60
2009,09,22,13,08,23.60
2009,09,22,13,09,23.70
2009,09,22,13,10,23.70
2009,09,22,13,11,23.70
2009,09,22,13,12,23.70
2009,09,22,13,13,23.70
2009,09,22,13,14,23.70
2009,09,22,13,15,23.70
2009,09,22,13,16,23.60
2009,09,22,13,17,23.60
2009,09,22,13,18,23.60
2009,09,22,13,19,23.60
2009,09,22,13,20,23.60
2009,09,22,13,21,23.70
2009,09,22,13,22,23.70
2009,09,22,13,23,23.70
2009,09,22,13,24,23.70
2009,09,22,13,25,23.70
2009,09,22,13,26,23.80
2009,09,22,13,27,23.80
2009,09,22,13,28,23.80
2009,09,22,13,29,23.80
2009,09,22,13,30,23.80
2009,09,22,13,31,23.90
2009,09,22,13,32,24.00
2009,09,22,13,33,24.10
2009,09,22,13,34,24.10
2009,09,22,13,35,24.10
2009,09,22,13,36,24.20
2009,09,22,13,37,24.20
2009,09,22,13,38,24.20
2009,09,22,13,39,24.30
2009,09,22,13,40,24.30
2009,09,22,13,41,24.30
2009,09,22,13,42,24.40
2009,09,22,13,43,24.40
2009,09,22,13,44,24.40
2009,09,22,13,45,24.40
2009,09,22,13,46,24.50
2009,09,22,13,47,24.50
2009,09,22,13,48,24.50
2009,09,22,13,49,24.50
2009,09,22,13,50,24.50
2009,09,22,13,51,24.40
2009,09,22,13,52,24.40
2009,09,22,13,53,24.40
2009,09,22,13,54,24.40
2009,09,22,13,55,24.50
2009,09,22,13,56,24.50
2009,09,22,13,57,24.50
2009,09,22,13,58,24.60
2009,09,22,13,59,24.60
2009,09,22,14,00,24.60
2009,09,22,14,01,24.60
2009,09,22,14,02,24.60
2009,09,22,14,03,24.70
2009,09,22,14,04,24.60
2009,09,22,14,05,24.60
2009,09,22,14,06,24.70
2009,09,22,14,07,24.70
2009,09,22,14,08,24.70
2009,09,22,14,09,24.80
2009,09,22,14,10,24.80
2009,09,22,14,11,24.80
2009,09,22,14,12,24.80
2009,09,22,14,13,24.80
2009,09,22,14,14,24.80
2009,09,22,14,15,24.80
2009,09,22,14,16,24.60
2009,09,22,14,17,24.50
2009,09,22,14,18,24.40
2009,09,22,14,19,24.40
2009,09,22,14,20,24.40
2009,09,22,14,21,24.30
2009,09,22,14,22,24.30
2009,09,22,14,23,24.20
2009,09,22,14,24,24.10
2009,09,22,14,25,24.10
2009,09,22,14,26,24.10
2009,09,22,14,27,24.10
2009,09,22,14,28,24.10
2009,09,22,14,29,24.20
2009,09,22,14,30,24.20
2009,09,22,14,31,24.20
2009,09,22,14,32,24.10
2009,09,22,14,33,24.10
2009,09,22,14,34,24.10
2009,09,22,14,35,24.10
2009,09,22,14,36,24.10
2009,09,22,14,37,24.00
2009,09,22,14,38,23.90
2009,09,22,14,39,23.90
2009,09,22,14,40,23.90
2009,09,22,14,41,23.90
2009,09,22,14,42,24.10
2009,09,22,14,43,24.10
2009,09,22,14,44,24.00
2009,09,22,14,45,23.90
2009,09,22,14,46,23.90
2009,09,22,14,47,23.90
2009,09,22,14,48,24.10
2009,09,22,14,49,24.10
2009,09,22,14,50,24.10
2009,09,22,14,51,24.20
2009,09,22,14,52,24.20
2009,09,22,14,53,24.20
2009,09,22,14,54,24.20
2009,09,22,14,55,24.30
2009,09,22,14,56,24.30
2009,09,22,14,57,24.30
2009,09,22,14,58,24.30
2009,09,22,14,59,24.30
2009,09,22,15,00,24.40
2009,09,22,15,01,24.40
2009,09,22,15,02,24.40
2009,09,22,15,03,24.40
2009,09,22,15,04,24.40
2009,09,22,15,05,24.40
2009,09,22,15,06,24.40
2009,09,22,15,07,24.40
2009,09,22,15,08,24.40
2009,09,22,15,09,24.40
2009,09,22,15,10,24.40
2009,09,22,15,11,24.40
2009,09,22,15,12,24.40
2009,09,22,15,13,24.40
2009,09,22,15,14,24.40
2009,09,22,15,15,24.40
2009,09,22,15,16,24.40
2009,09,22,15,17,24.40
2009,09,22,15,18,24.40
2009,09,22,15,19,24.50
2009,09,22,15,20,24.50
2009,09,22,15,21,24.60
2009,09,22,15,22,24.60
2009,09,22,15,23,24.60
2009,09,22,15,24,24.60
2009,09,22,15,25,24.60
2009,09,22,15,26,24.60
2009,09,22,15,27,24.60
2009,09,22,15,28,24.60
2009,09,22,15,29,24.60
2009,09,22,15,30,24.60
2009,09,22,15,31,24.60
2009,09,22,15,32,24.70
2009,09,22,15,33,24.70
2009,09,22,15,34,24.70
2009,09,22,15,35,24.80
2009,09,22,15,36,24.80
2009,09,22,15,37,24.90
2009,09,22,15,38,24.90
2009,09,22,15,39,25.00
2009,09,22,15,40,25.10
2009,09,22,15,41,25.10
2009,09,22,15,42,25.20
2009,09,22,15,43,25.20
2009,09,22,15,44,25.20
2009,09,22,15,45,25.20
2009,09,22,15,46,25.20
2009,09,22,15,47,25.20
2009,09,22,15,48,25.10
2009,09,22,15,49,25.00
2009,09,22,15,50,24.90
2009,09,22,15,51,24.90
2009,09,22,15,52,24.80
2009,09,22,15,53,24.80
2009,09,22,15,54,24.70
2009,09,22,15,55,24.70
2009,09,22,15,56,24.70
2009,09,22,15,57,24.70
2009,09,22,15,58,24.70
2009,09,22,15,59,24.70
2009,09,22,16,00,24.80
2009,09,22,16,01,24.90
2009,09,22,16,02,24.90
2009,09,22,16,03,25.00
2009,09,22,16,04,25.10
2009,09,22,16,05,25.10
2009,09,22,16,06,25.20
2009,09,22,16,07,25.30
2009,09,22,16,08,25.30
2009,09,22,16,09,25.30
2009,09,22,16,10,25.30
2009,09,22,16,11,25.30
2009,09,22,16,12,25.30
2009,09,22,16,13,25.40
2009,09,22,16,14,25.40
2009,09,22,16,15,25.40
2009,09,22,16,16,25.40
2009,09,22,16,17,25.40
2009,09,22,16,18,25.40
2009,09,22,16,19,25.40
2009,09,22,16,20,25.30
2009,09,22,16,21,25.30
2009,09,22,16,22,25.30
2009,09,22,16,23,25.30
2009,09,22,16,24,25.30
2009,09,22,16,25,25.30
2009,09,22,16,26,25.30
2009,09,22,16,27,25.30
2009,09,22,16,28,25.30
2009,09,22,16,29,25.40
2009,09,22,16,30,25.40
2009,09,22,16,31,25.40
2009,09,22,16,32,25.40
2009,09,22,16,33,25.40
2009,09,22,16,34,25.40
2009,09,22,16,35,25.40
2009,09,22,16,36,25.40
2009,09,22,16,37,25.40
2009,09,22,16,38,25.40
2009,09,22,16,39,25.40
2009,09,22,16,40,25.40
2009,09,22,16,41,25.40
2009,09,22,16,42,25.40
2009,09,22,16,43,25.40
2009,09,22,16,44,25.30
2009,09,22,16,45,25.30
2009,09,22,16,46,25.30
2009,09,22,16,47,25.30
2009,09,22,16,48,25.30
2009,09,22,16,49,25.30
2009,09,22,16,50,25.30
2009,09,22,16,51,25.40
2009,09,22,16,52,25.40
2009,09,22,16,53,25.40
2009,09,22,16,54,25.40
2009,09,22,16,55,25.50
2009,09,22,16,56,25.50
2009,09,22,16,57,25.60
2009,09,22,16,58,25.60
2009,09,22,16,59,25.50
2009,09,22,17,00,25.50
2009,09,22,17,01,25.50
2009,09,22,17,02,25.50
2009,09,22,17,03,25.60
2009,09,22,17,04,25.50
2009,09,22,17,05,25.50
2009,09,22,17,06,25.60
2009,09,22,17,07,25.60
2009,09,22,17,08,25.60
2009,09,22,17,09,25.60
2009,09,22,17,10,25.60
2009,09,22,17,11,25.60
2009,09,22,17,12,25.60
2009,09,22,17,13,25.60
2009,09,22,17,14,25.70
2009,09,22,17,15,25.70
2009,09,22,17,16,25.80
2009,09,22,17,17,25.70
2009,09,22,17,18,25.70
2009,09,22,17,19,25.60